CAPE
nan nan nan nan nan nan nan nan nan nan nan nan nan nan nan nan nan nan nan nan nan nan nan nan nan nan nan nan nan nan 3 22 36 36 38 45 48 48 50 48 48 51 56 62 62 73 85 98 98 101 108 111 119 119 134 144 144 149 154 153 153 159 165 168 168 175 187 192 207 207 208 191 179 179 185 197 210 210 216 214 214 207 199 190 190 184
nan nan nan nan nan nan nan nan nan nan nan nan nan nan nan nan nan nan nan nan nan nan nan nan nan nan nan nan nan nan nan 9 24 24 32 40 47 47 47 48 48 50 54 56 56 64 77 91 91 98 104 105 108 108 117 127 127 133 132 137 137 140 152 158 158 173 192 197 214 214 215 198 186 186 181 187 192 192 190 196 196 191 184 175 175 166
nan nan nan nan nan nan nan nan nan nan nan nan nan nan nan nan nan nan nan nan nan nan nan nan nan nan nan nan nan nan 0 8 13 13 26 36 44 44 45 50 50 46 50 61 61 65 74 83 83 96 102 101 108 108 111 115 115 121 115 125 125 130 139 158 158 163 184 196 201 201 204 190 180 180 168 164 163 163 153 167 167 183 185 183 183 164
0 0 nan nan nan nan nan nan nan nan nan nan nan nan nan nan nan nan nan nan nan nan nan nan nan nan nan nan nan nan 0 7 12 12 16 24 34 34 38 44 44 56 59 64 64 72 81 90 90 92 104 108 110 110 113 116 116 115 119 118 118 123 133 149 149 157 163 171 177 177 169 158 149 149 136 130 129 129 125 140 140 172 192 191 191 190
4 3 1 0 0 nan nan nan nan nan nan nan nan nan nan nan nan nan nan nan nan nan nan nan nan nan nan nan nan nan nan 6 10 10 14 19 32 32 42 53 53 63 67 76 76 82 89 97 97 104 105 112 119 119 120 117 117 114 113 112 112 112 122 128 128 132 136 142 140 140 135 122 121 121 110 107 108 108 113 130 130 151 167 178 178 187
5 1 1 nan nan nan nan nan nan nan nan nan nan nan nan nan nan nan nan nan nan nan nan nan nan nan nan nan nan nan 0 6 10 10 13 21 30 30 41 53 53 66 77 88 88 93 99 105 105 106 112 114 120 120 121 123 123 110 104 103 103 98 98 103 103 105 111 113 115 115 114 109 107 107 106 103 97 97 98 102 102 132 142 159 159 176
0 0 nan nan nan nan nan nan nan nan nan nan nan nan nan nan nan nan nan nan nan nan nan nan nan nan nan nan nan nan 0 3 7 7 8 12 24 24 35 52 52 66 74 86 86 96 96 102 102 108 108 115 117 117 112 104 104 97 87 86 86 86 87 92 92 93 101 106 101 101 99 100 100 100 99 94 81 81 79 84 84 111 130 147 147 162
nan nan nan nan nan nan nan nan nan nan nan nan nan nan nan nan nan nan nan nan nan nan nan nan nan nan nan nan nan nan nan nan nan nan nan nan nan nan 1 7 7 22 34 48 48 55 65 76 76 82 84 86 88 88 90 86 86 84 84 80 80 81 88 94 94 91 88 81 74 74 71 69 72 72 70 69 63 63 60 59 59 66 89 110 110 135
nan nan nan nan nan nan nan nan nan nan nan nan nan nan nan nan nan nan nan nan nan nan nan nan nan nan nan nan nan nan nan nan nan nan nan nan nan nan nan 1 1 10 29 40 40 51 59 65 65 76 78 87 84 84 84 86 86 90 85 85 85 82 79 85 85 82 75 67 62 62 60 61 60 60 63 61 58 58 51 47 47 51 65 87 87 114
nan nan nan nan nan nan nan nan nan nan nan nan nan nan nan nan nan nan nan nan nan nan nan nan nan nan nan nan nan nan nan nan 7 7 15 2 9 9 1 1 1 1 26 40 40 51 58 65 65 74 82 82 89 89 85 84 84 79 77 72 72 70 67 70 70 69 70 65 58 58 58 54 56 56 56 58 53 53 51 47 47 44 54 69 69 95
nan nan nan nan nan nan nan nan nan nan nan nan nan nan nan nan nan nan nan nan nan nan nan nan nan nan nan nan nan nan nan nan nan nan nan 0 2 2 2 2 2 4 13 21 21 29 29 35 35 49 55 65 65 65 60 60 60 63 59 62 62 62 63 62 62 64 58 60 56 56 52 51 52 52 52 54 54 54 50 51 51 51 55 62 62 81
nan nan nan nan nan nan nan nan nan nan nan nan nan nan nan nan nan nan nan nan nan nan nan nan nan nan nan nan nan nan nan nan nan nan nan nan nan nan nan nan nan nan nan nan nan nan 2 3 3 10 11 13 27 27 31 25 25 39 43 44 44 45 50 51 51 45 46 48 46 46 51 51 53 53 51 56 58 58 60 63 63 60 60 67 67 81
nan nan nan nan nan nan nan nan nan nan nan nan nan nan nan nan nan nan nan nan nan nan nan nan nan nan nan nan nan nan nan nan nan nan nan nan nan nan nan nan nan nan nan nan nan nan nan nan nan nan 0 0 2 2 6 4 4 14 21 26 26 26 30 28 28 30 33 37 44 44 47 48 52 52 57 66 71 71 72 75 75 72 71 77 77 89
nan nan nan nan nan nan nan nan nan nan nan nan nan nan nan nan nan nan nan nan nan nan nan nan nan nan nan nan nan nan nan nan nan nan nan nan nan nan nan nan nan nan nan nan nan nan nan nan nan nan nan nan nan nan nan nan nan nan 0 6 6 7 15 15 15 19 29 35 40 40 44 53 56 56 67 73 84 84 83 79 79 83 88 95 95 101
nan nan nan nan nan nan nan nan nan nan nan nan nan nan nan nan nan nan nan nan nan nan nan nan nan nan nan nan nan nan nan nan nan nan nan nan nan nan nan nan nan nan nan nan nan nan nan nan nan nan nan nan nan nan nan nan nan nan nan 0 0 2 5 12 12 19 28 38 41 41 47 56 63 63 75 84 87 87 85 88 88 90 95 109 109 122
nan nan nan nan nan nan nan nan nan nan nan nan nan nan nan nan nan nan nan nan nan nan nan nan nan nan nan nan nan nan nan nan nan nan nan nan nan nan nan nan nan nan nan nan nan nan nan nan nan nan nan nan nan nan nan nan nan nan 0 1 1 3 7 14 14 23 31 40 43 43 54 63 74 74 82 87 90 90 95 93 93 93 96 107 107 118
nan nan nan nan nan nan nan nan nan nan nan nan nan nan nan nan nan nan nan nan nan nan nan nan nan nan nan nan nan nan nan nan nan nan nan nan nan nan nan nan nan nan nan nan nan nan nan nan nan nan nan nan nan nan nan nan nan nan 0 2 2 5 9 16 16 25 33 41 49 49 55 65 72 72 79 84 93 93 93 95 95 91 95 102 102 111
nan nan nan nan nan nan nan nan nan nan nan nan nan nan nan nan nan nan nan nan nan nan nan nan nan nan nan nan nan nan nan nan nan nan nan nan nan nan nan nan nan nan nan nan nan nan nan nan nan nan nan nan nan nan nan nan nan 0 1 3 3 7 12 20 20 31 39 44 50 50 57 66 70 70 77 82 90 90 91 93 93 95 93 92 92 96
nan nan nan nan nan nan nan nan nan nan nan nan nan nan nan nan nan nan nan nan nan nan nan nan nan nan nan nan nan nan nan nan nan nan nan nan nan nan nan nan nan nan nan nan nan nan nan nan nan nan nan nan nan nan nan 0 0 1 3 5 5 9 15 24 24 32 41 45 52 52 58 64 71 71 78 87 89 89 94 98 98 100 100 94 94 89
nan nan nan nan nan nan nan nan nan nan nan nan nan nan nan nan nan nan nan nan nan nan nan nan nan nan nan nan nan nan nan nan nan nan nan nan nan nan nan nan nan nan nan nan nan nan nan nan nan nan nan nan nan nan nan 0 0 1 3 6 6 9 16 26 26 34 39 46 51 51 58 66 70 70 80 86 89 89 95 104 104 106 112 107 107 96
0 0 nan nan nan nan nan nan nan nan nan nan nan nan nan nan nan nan nan nan nan nan nan nan nan nan nan nan nan nan nan nan nan nan nan nan nan nan nan nan nan nan nan nan nan nan nan nan nan nan nan nan nan nan nan 0 0 1 3 6 6 8 14 24 24 32 38 43 48 48 57 62 68 68 74 83 84 84 91 96 96 106 113 118 118 107
1 0 nan 0 0 1 4 nan nan nan nan nan nan nan nan nan nan nan nan nan nan nan nan nan nan nan nan nan nan nan nan nan nan nan nan nan nan nan nan nan nan nan nan nan nan nan nan nan nan nan nan nan nan nan nan 0 0 2 3 5 5 8 13 25 25 32 37 42 48 48 54 57 66 66 68 74 83 83 90 94 94 102 111 118 118 122
nan nan nan nan nan 0 2 nan nan nan 0 nan nan nan nan nan nan nan nan nan nan nan nan nan nan nan nan nan nan nan nan nan nan nan nan nan nan nan nan nan nan nan nan nan nan nan nan nan nan nan nan nan nan nan nan 1 1 2 3 5 5 8 14 23 23 30 36 40 45 45 50 56 61 61 63 72 78 78 87 93 93 93 98 105 105 112
nan nan nan nan nan nan nan nan nan nan nan nan nan nan nan nan nan nan nan nan nan nan nan nan nan nan nan nan nan nan nan nan nan nan nan nan nan nan nan nan nan nan nan nan nan nan nan nan nan nan nan nan nan nan nan 1 1 2 4 5 5 8 15 22 22 30 35 40 44 44 47 53 57 57 58 64 73 73 83 89 89 91 92 97 97 104
5 1 nan nan nan nan nan nan nan nan nan nan nan nan nan nan nan nan nan nan nan nan nan nan nan nan nan nan nan nan nan nan nan nan nan nan nan nan nan nan nan nan nan nan nan nan nan nan nan nan nan nan nan nan nan 0 0 2 3 5 5 7 14 18 18 26 34 36 41 41 47 51 54 54 58 63 68 68 75 86 86 93 89 90 90 97
42 36 23 20 20 62 103 97 73 73 24 nan nan nan nan nan nan nan nan nan nan nan nan nan nan nan nan nan nan nan nan nan nan nan nan nan nan nan nan nan nan nan nan nan nan nan nan nan nan nan nan nan nan nan nan nan nan 1 2 4 4 5 10 15 15 22 29 35 40 40 47 52 53 53 56 58 66 66 74 80 80 89 92 93 93 98
78 99 143 171 171 200 213 238 264 264 293 195 29 29 nan nan nan nan nan nan nan nan nan nan nan nan nan nan nan nan nan nan nan nan nan nan nan nan nan nan nan nan nan nan nan nan nan nan nan nan nan nan nan nan nan nan nan nan 1 2 2 3 5 10 10 17 24 31 38 38 43 49 51 51 53 57 62 62 68 72 72 78 84 83 83 95
52 83 104 141 141 160 190 211 225 225 253 258 266 266 131 2 nan nan 0 nan nan nan nan nan nan nan nan nan nan nan nan nan nan nan nan nan nan nan nan nan nan nan nan nan nan nan nan nan nan nan nan nan nan nan nan nan nan nan 0 1 1 2 2 5 5 12 22 27 37 37 43 47 47 47 47 50 57 57 57 64 64 71 79 70 70 45
47 90 132 154 154 175 185 193 205 205 209 214 199 199 121 16 nan nan 0 nan nan nan nan nan nan nan nan nan nan nan nan nan nan nan nan nan nan nan nan nan nan nan nan nan nan nan nan nan nan nan nan nan nan nan nan nan nan nan nan nan nan 0 0 1 1 4 15 22 26 26 34 39 40 40 43 46 47 47 53 55 55 65 63 50 50 40
20 50 88 115 115 140 136 88 105 105 161 172 176 176 130 10 nan nan nan nan nan 0 0 nan nan nan nan nan nan nan nan nan nan nan nan nan nan nan nan nan nan nan nan nan nan nan nan nan nan nan nan nan nan nan nan nan nan nan nan nan nan nan nan nan nan nan 1 10 16 16 26 31 36 36 39 40 41 41 45 49 49 47 33 26 26 38
21 24 19 24 24 21 15 nan 16 16 72 117 104 104 60 6 1 1 0 3 3 2 nan nan nan nan nan nan nan nan nan nan nan nan nan nan nan nan nan nan nan nan nan nan nan nan nan nan nan nan nan nan nan nan nan nan nan nan nan nan nan nan nan nan nan nan nan nan 5 5 13 24 29 29 38 38 39 39 40 42 42 37 20 26 26 42
nan nan nan nan nan 0 1 nan nan nan 0 1 3 3 28 28 23 23 8 nan nan nan nan nan nan nan nan nan nan nan nan nan nan nan nan nan nan nan nan nan nan nan nan nan nan nan nan nan nan nan nan nan nan nan nan nan nan nan nan nan nan nan nan nan nan nan nan nan nan nan nan 2 10 10 21 35 37 37 38 33 33 30 25 24 24 38
nan nan nan nan nan nan nan nan nan nan nan nan nan nan nan nan 5 5 8 11 11 12 7 nan nan nan nan 2 0 0 nan nan nan nan nan nan nan nan nan nan nan nan nan nan nan nan nan nan nan nan nan nan nan nan nan nan nan nan nan nan nan nan nan nan nan nan nan nan nan nan nan nan 2 2 9 19 26 26 30 31 31 38 38 17 17 34
nan nan nan nan nan nan nan nan nan nan nan nan nan nan nan nan nan nan nan nan nan nan nan 12 12 19 11 4 1 1 nan nan nan nan 12 nan nan nan nan nan nan nan nan nan nan nan nan nan nan nan nan nan nan nan nan nan nan nan nan nan nan nan nan nan nan nan nan nan nan nan nan nan nan nan nan 1 8 8 20 30 30 39 48 47 47 43
nan nan nan nan nan nan nan nan nan nan nan nan nan nan nan nan nan nan nan nan nan nan nan nan nan 6 7 4 1 1 nan nan 1 1 29 nan nan nan nan nan nan nan nan nan nan nan nan nan nan nan nan nan nan nan nan nan nan nan nan nan nan nan nan nan nan nan nan nan nan nan nan nan nan nan nan nan 1 1 18 26 26 33 44 57 57 52
nan nan nan nan nan nan nan nan nan nan nan nan nan nan nan nan nan nan nan nan nan nan nan nan nan 10 16 12 8 8 nan nan nan nan 40 nan nan nan nan nan nan nan nan nan nan nan nan nan nan nan nan nan nan nan nan nan nan nan nan nan nan nan nan nan nan nan nan nan nan nan nan nan nan nan nan nan 2 2 15 23 23 29 35 43 43 45
nan nan nan nan nan nan nan nan nan nan nan nan nan nan nan nan nan nan nan nan nan nan 1 19 19 23 30 20 10 10 2 3 1 1 nan nan 0 0 nan nan nan nan nan nan nan nan nan nan nan nan nan nan nan nan nan nan nan nan nan nan nan nan nan nan nan nan nan nan nan nan nan nan nan nan nan nan nan nan 8 21 21 25 34 39 39 45
nan nan nan nan nan nan nan nan nan nan nan nan nan nan nan nan nan nan nan nan nan nan nan nan nan nan nan 5 nan nan nan nan nan nan nan nan 3 3 10 4 4 2 nan nan nan nan nan nan nan nan nan nan nan nan nan nan nan nan nan nan nan nan nan nan nan nan nan nan nan nan nan nan nan nan nan nan nan nan nan nan nan 3 27 33 33 40
nan nan nan nan nan nan nan nan nan nan nan nan nan nan nan nan nan nan nan nan nan nan nan nan nan nan nan nan nan nan nan nan nan nan nan nan nan nan 6 5 5 2 nan nan nan nan nan nan nan nan nan nan nan nan nan nan nan nan nan nan nan nan nan nan nan nan nan nan nan nan nan nan nan nan nan nan nan nan nan nan nan nan 0 3 3 25
nan nan nan nan nan nan nan nan nan nan nan nan nan nan nan nan nan nan nan nan nan nan nan nan nan nan nan nan 2 2 nan nan nan nan nan nan nan nan 2 2 2 1 nan nan nan nan nan nan nan nan nan nan nan nan nan nan nan nan nan nan nan nan nan nan nan nan nan nan nan nan nan nan nan nan nan nan nan nan nan nan nan nan nan 2 2 15
nan nan nan nan nan nan nan nan nan nan nan nan nan nan nan nan nan nan nan nan nan nan nan nan nan nan nan nan nan nan nan nan nan nan nan nan nan nan nan nan nan nan nan nan nan nan nan nan nan nan nan nan nan nan nan nan nan nan nan nan nan nan nan nan nan nan nan nan nan nan nan nan nan nan nan nan nan nan nan nan nan nan nan nan nan 12
10 0 nan nan nan nan nan nan nan nan nan nan nan nan nan nan nan nan nan nan nan nan nan nan nan nan nan nan nan nan nan nan nan nan nan nan nan nan nan nan nan nan nan nan nan nan nan nan nan nan nan nan nan nan nan nan nan nan nan nan nan nan nan nan nan nan nan nan nan nan nan nan nan nan nan nan nan nan nan nan nan nan nan 0 0 7
2 nan nan nan nan nan nan nan nan nan nan nan nan nan nan nan 1 1 7 4 4 0 nan nan nan 1 2 0 nan nan nan nan nan nan nan nan nan nan nan nan nan nan nan nan nan nan nan nan nan nan nan nan nan nan nan nan nan nan nan nan nan nan nan nan nan nan nan nan nan nan nan nan nan nan nan nan nan nan nan nan nan nan nan nan nan nan
2 0 nan nan nan nan nan nan nan nan nan 3 6 6 nan nan 8 8 18 8 8 4 1 0 0 1 2 2 nan nan nan nan nan nan nan nan nan nan nan nan nan nan nan nan nan nan nan nan nan nan nan nan nan nan nan nan nan nan nan nan nan nan nan nan nan nan nan nan nan nan nan nan nan nan nan nan nan nan nan nan nan nan nan nan nan nan
0 0 1 2 2 4 3 1 nan nan nan 8 10 10 nan nan 3 3 5 2 2 2 0 0 0 1 1 0 1 1 nan nan nan nan nan nan 36 36 nan nan nan nan nan nan nan nan nan nan nan nan nan nan nan nan nan nan nan nan nan nan nan nan nan nan nan nan nan nan nan nan nan nan nan nan nan nan nan nan nan nan nan nan nan nan nan nan
4 4 3 3 3 8 24 17 5 5 9 13 5 5 nan nan nan nan nan nan nan nan nan nan nan nan 1 4 3 3 0 nan nan nan nan nan nan nan nan nan nan nan nan nan nan nan nan nan nan nan nan nan nan nan nan nan nan nan nan nan nan nan nan nan nan nan nan nan nan nan nan nan nan nan nan nan nan nan nan nan nan nan nan nan nan nan
2 5 7 14 14 23 24 13 7 7 10 3 nan nan nan nan nan nan nan nan nan nan nan nan nan 1 5 4 nan nan nan nan nan nan nan nan nan nan nan nan nan 0 nan nan nan nan nan nan nan nan nan nan nan nan nan nan nan nan nan nan nan nan nan nan nan nan nan nan nan nan nan nan nan nan nan nan nan nan nan nan nan nan nan nan nan nan
15 19 22 22 22 12 5 1 0 0 5 2 nan nan nan nan nan nan nan nan nan nan 1 nan nan 1 nan nan nan nan nan nan nan nan nan nan nan nan nan nan nan nan 0 nan nan nan nan nan nan nan nan nan nan nan nan nan nan nan nan nan nan nan nan nan nan nan nan nan nan nan nan nan nan nan nan nan nan nan nan nan nan nan nan nan nan nan
13 16 16 13 13 6 1 nan 0 0 3 2 nan nan nan nan 14 14 0 nan nan nan nan 2 2 4 3 1 1 1 6 6 0 0 nan nan nan nan nan nan nan nan nan nan nan nan nan nan nan nan nan nan nan nan nan nan nan nan nan nan nan nan nan nan nan nan nan nan nan nan nan nan nan nan nan nan nan nan nan nan nan nan nan nan nan nan
12 8 9 7 7 4 3 0 5 5 6 3 nan nan nan nan nan nan 0 1 1 4 4 5 5 5 7 4 nan nan nan nan nan nan nan nan nan nan nan nan nan nan nan nan nan nan nan nan nan 0 0 nan nan nan nan nan nan nan nan nan nan nan nan nan nan nan nan nan nan nan nan nan nan nan nan nan nan nan nan nan nan nan nan nan nan nan
9 7 5 5 5 6 1 3 7 7 4 3 2 2 nan nan 1 1 nan nan nan nan nan nan nan nan nan nan nan nan nan nan nan nan nan nan nan nan nan nan nan nan nan nan nan nan nan nan nan nan 6 16 nan nan nan nan nan nan nan nan nan nan nan nan nan nan nan nan nan nan nan nan nan nan nan nan nan nan nan nan nan nan nan nan nan nan
CIN
nan nan nan nan nan nan nan nan nan nan nan nan nan nan nan nan nan nan nan nan nan nan nan nan nan nan nan nan nan nan -2 -0 -0 -0 -0 -0 -0 -0 -0 -0 -0 -0 -0 -0 -0 -0 -0 -0 -0 -0 -0 -0 -0 -0 -0 -0 -0 -0 -0 -0 -0 -0 -0 -0 -0 -0 -0 -0 -0 -0 -0 -0 -0 -0 -0 -0 -0 -0 -0 -0 -0 -0 -0 -0 -0 -0
nan nan nan nan nan nan nan nan nan nan nan nan nan nan nan nan nan nan nan nan nan nan nan nan nan nan nan nan nan nan nan -0 -0 -0 -0 -0 -0 -0 -0 -0 -0 -0 -0 -0 -0 -0 -0 -0 -0 -0 -0 -0 -0 -0 -0 -0 -0 -0 -0 -0 -0 -0 -0 -0 -0 -0 -0 -0 -0 -0 -0 -0 -0 -0 -0 -0 -0 -0 -0 -0 -0 -0 -0 -0 -0 -0
nan nan nan nan nan nan nan nan nan nan nan nan nan nan nan nan nan nan nan nan nan nan nan nan nan nan nan nan nan nan -1 -0 -0 -0 -0 -0 -0 -0 -0 -0 -0 -0 -0 -0 -0 -0 -0 -0 -0 -0 -0 -0 -0 -0 -0 -0 -0 -0 -0 -0 -0 -0 -0 -0 -0 -0 -0 -0 -0 -0 -0 -0 -0 -0 -0 -0 -0 -0 -0 -0 -0 -0 -0 -0 -0 -0
-12 -6 nan nan nan nan nan nan nan nan nan nan nan nan nan nan nan nan nan nan nan nan nan nan nan nan nan nan nan nan -1 -0 -0 -0 -0 -0 -0 -0 -0 -0 -0 -0 -0 -0 -0 -0 -0 -0 -0 -0 -0 -0 -0 -0 -0 -0 -0 -0 -0 -0 -0 -0 -0 -0 -0 -0 -0 -0 -0 -0 -0 -0 -0 -0 -0 -0 -0 -0 -0 -0 -0 -0 -0 -0 -0 -0
-0 -0 -7 -11 -11 nan nan nan nan nan nan nan nan nan nan nan nan nan nan nan nan nan nan nan nan nan nan nan nan nan nan -0 -0 -0 -0 -0 -0 -0 -0 -0 -0 -0 -0 -0 -0 -0 -0 -0 -0 -0 -0 -0 -0 -0 -0 -0 -0 -0 -0 -0 -0 -0 -0 -0 -0 -0 -0 -0 -0 -0 -0 -0 -0 -0 -0 -0 -0 -0 -0 -0 -0 -0 -0 -0 -0 -0
-3 -1 -2 nan nan nan nan nan nan nan nan nan nan nan nan nan nan nan nan nan nan nan nan nan nan nan nan nan nan nan -1 -0 -0 -0 -0 -0 -0 -0 -0 -0 -0 -0 -0 -0 -0 -0 -0 -0 -0 -0 -0 -0 -0 -0 -0 -0 -0 -0 -0 -0 -0 -0 -0 -0 -0 -0 -0 -0 -0 -0 -0 -0 -0 -0 -0 -0 -0 -0 -0 -0 -0 -0 -0 -0 -0 -0
-6 -1 nan nan nan nan nan nan nan nan nan nan nan nan nan nan nan nan nan nan nan nan nan nan nan nan nan nan nan nan -1 -0 -0 -0 -0 -0 -0 -0 -0 -0 -0 -0 -0 -0 -0 -0 -0 -0 -0 -0 -0 -0 -0 -0 -0 -0 -0 -0 -0 -0 -0 -0 -0 -0 -0 -0 -0 -0 -0 -0 -0 -0 -0 -0 -0 -0 -0 -0 -0 -0 -0 -0 -0 -0 -0 -0
nan nan nan nan nan nan nan nan nan nan nan nan nan nan nan nan nan nan nan nan nan nan nan nan nan nan nan nan nan nan nan nan nan nan nan nan nan nan -0 -0 -0 -0 -0 -0 -0 -0 -0 -0 -0 -0 -0 -0 -0 -0 -0 -0 -0 -0 -0 -0 -0 -0 -0 -0 -0 -0 -0 -0 -0 -0 -0 -0 -0 -0 -0 -0 -0 -0 -0 -0 -0 -0 -0 -0 -0 -0
nan nan nan nan nan nan nan nan nan nan nan nan nan nan nan nan nan nan nan nan nan nan nan nan nan nan nan nan nan nan nan nan nan nan nan nan nan nan nan -0 -0 -0 -0 -0 -0 -0 -0 -0 -0 -0 -0 -0 -0 -0 -0 -0 -0 -0 -0 -0 -0 -0 -0 -0 -0 -0 -0 -0 -0 -0 -0 -0 -0 -0 -0 -0 -0 -0 -0 -0 -0 -0 -0 -0 -0 -0
nan nan nan nan nan nan nan nan nan nan nan nan nan nan nan nan nan nan nan nan nan nan nan nan nan nan nan nan nan nan nan nan -0 -0 -0 -0 -0 -0 -0 -0 -0 -0 -0 -0 -0 -0 -0 -0 -0 -0 -0 -0 -0 -0 -0 -0 -0 -0 -0 -0 -0 -0 -0 -0 -0 -0 -0 -0 -0 -0 -0 -0 -0 -0 -0 -0 -0 -0 -0 -0 -0 -0 -0 -0 -0 -0
nan nan nan nan nan nan nan nan nan nan nan nan nan nan nan nan nan nan nan nan nan nan nan nan nan nan nan nan nan nan nan nan nan nan nan -1 -0 -0 -0 -0 -0 -0 -0 -0 -0 -0 -0 -0 -0 -0 -0 -0 -0 -0 -0 -0 -0 -0 -0 -0 -0 -0 -0 -0 -0 -0 -0 -0 -0 -0 -0 -0 -0 -0 -0 -0 -0 -0 -0 -0 -0 -0 -0 -0 -0 -0
nan nan nan nan nan nan nan nan nan nan nan nan nan nan nan nan nan nan nan nan nan nan nan nan nan nan nan nan nan nan nan nan nan nan nan nan nan nan nan nan nan nan nan nan nan nan -0 -0 -0 -0 -0 -0 -0 -0 -0 -0 -0 -0 -0 -0 -0 -0 -0 -0 -0 -0 -0 -0 -0 -0 -0 -0 -0 -0 -0 -0 -0 -0 -0 -0 -0 -0 -0 -0 -0 -0
nan nan nan nan nan nan nan nan nan nan nan nan nan nan nan nan nan nan nan nan nan nan nan nan nan nan nan nan nan nan nan nan nan nan nan nan nan nan nan nan nan nan nan nan nan nan nan nan nan nan -0 -0 -0 -0 -0 -0 -0 -0 -0 -0 -0 -0 -0 -0 -0 -0 -0 -0 -0 -0 -0 -0 -0 -0 -0 -0 -0 -0 -0 -0 -0 -0 -0 -0 -0 -0
nan nan nan nan nan nan nan nan nan nan nan nan nan nan nan nan nan nan nan nan nan nan nan nan nan nan nan nan nan nan nan nan nan nan nan nan nan nan nan nan nan nan nan nan nan nan nan nan nan nan nan nan nan nan nan nan nan nan -0 -0 -0 -0 -0 -0 -0 -0 -0 -0 -0 -0 -0 -0 -0 -0 -0 -0 -0 -0 -0 -0 -0 -0 -0 -0 -0 -0
nan nan nan nan nan nan nan nan nan nan nan nan nan nan nan nan nan nan nan nan nan nan nan nan nan nan nan nan nan nan nan nan nan nan nan nan nan nan nan nan nan nan nan nan nan nan nan nan nan nan nan nan nan nan nan nan nan nan nan -0 -0 -0 -0 -0 -0 -0 -0 -0 -0 -0 -0 -0 -0 -0 -0 -0 -0 -0 -0 -0 -0 -0 -0 -0 -0 -0
nan nan nan nan nan nan nan nan nan nan nan nan nan nan nan nan nan nan nan nan nan nan nan nan nan nan nan nan nan nan nan nan nan nan nan nan nan nan nan nan nan nan nan nan nan nan nan nan nan nan nan nan nan nan nan nan nan nan -0 -0 -0 -0 -0 -0 -0 -0 -0 -0 -0 -0 -0 -0 -0 -0 -0 -0 -0 -0 -0 -0 -0 -0 -0 -0 -0 -0
nan nan nan nan nan nan nan nan nan nan nan nan nan nan nan nan nan nan nan nan nan nan nan nan nan nan nan nan nan nan nan nan nan nan nan nan nan nan nan nan nan nan nan nan nan nan nan nan nan nan nan nan nan nan nan nan nan nan -0 -0 -0 -0 -0 -0 -0 -0 -0 -0 -0 -0 -0 -0 -0 -0 -0 -0 -0 -0 -0 -0 -0 -0 -0 -0 -0 -0
nan nan nan nan nan nan nan nan nan nan nan nan nan nan nan nan nan nan nan nan nan nan nan nan nan nan nan nan nan nan nan nan nan nan nan nan nan nan nan nan nan nan nan nan nan nan nan nan nan nan nan nan nan nan nan nan nan -0 -0 -0 -0 -0 -0 -0 -0 -0 -0 -0 -0 -0 -0 -0 -0 -0 -0 -0 -0 -0 -0 -0 -0 -0 -0 -0 -0 -0
nan nan nan nan nan nan nan nan nan nan nan nan nan nan nan nan nan nan nan nan nan nan nan nan nan nan nan nan nan nan nan nan nan nan nan nan nan nan nan nan nan nan nan nan nan nan nan nan nan nan nan nan nan nan nan -0 -0 -0 -0 -0 -0 -0 -0 -0 -0 -0 -0 -0 -0 -0 -0 -0 -0 -0 -0 -0 -0 -0 -0 -0 -0 -0 -0 -0 -0 -0
nan nan nan nan nan nan nan nan nan nan nan nan nan nan nan nan nan nan nan nan nan nan nan nan nan nan nan nan nan nan nan nan nan nan nan nan nan nan nan nan nan nan nan nan nan nan nan nan nan nan nan nan nan nan nan -0 -0 -0 -0 -0 -0 -0 -0 -0 -0 -0 -0 -0 -0 -0 -0 -0 -0 -0 -0 -0 -0 -0 -0 -0 -0 -0 -0 -0 -0 -0
-0 -1 nan nan nan nan nan nan nan nan nan nan nan nan nan nan nan nan nan nan nan nan nan nan nan nan nan nan nan nan nan nan nan nan nan nan nan nan nan nan nan nan nan nan nan nan nan nan nan nan nan nan nan nan nan -0 -0 -0 -0 -0 -0 -0 -0 -0 -0 -0 -0 -0 -0 -0 -0 -0 -0 -0 -0 -0 -0 -0 -0 -0 -0 -0 -0 -0 -0 -0
-0 -1 nan -8 -8 -2 -2 nan nan nan nan nan nan nan nan nan nan nan nan nan nan nan nan nan nan nan nan nan nan nan nan nan nan nan nan nan nan nan nan nan nan nan nan nan nan nan nan nan nan nan nan nan nan nan nan -0 -0 -0 -0 -0 -0 -0 -0 -0 -0 -0 -0 -0 -0 -0 -0 -0 -0 -0 -0 -0 -0 -0 -0 -0 -0 -0 -0 -0 -0 -0
nan nan nan nan nan -5 -4 nan nan nan -10 nan nan nan nan nan nan nan nan nan nan nan nan nan nan nan nan nan nan nan nan nan nan nan nan nan nan nan nan nan nan nan nan nan nan nan nan nan nan nan nan nan nan nan nan -0 -0 -0 -0 -0 -0 -0 -0 -0 -0 -0 -0 -0 -0 -0 -0 -0 -0 -0 -0 -0 -0 -0 -0 -0 -0 -0 -0 -0 -0 -0
nan nan nan nan nan nan nan nan nan nan nan nan nan nan nan nan nan nan nan nan nan nan nan nan nan nan nan nan nan nan nan nan nan nan nan nan nan nan nan nan nan nan nan nan nan nan nan nan nan nan nan nan nan nan nan -0 -0 -0 -0 -0 -0 -0 -0 -0 -0 -0 -0 -0 -0 -0 -0 -0 -0 -0 -0 -0 -0 -0 -0 -0 -0 -0 -0 -0 -0 -0
-24 -33 nan nan nan nan nan nan nan nan nan nan nan nan nan nan nan nan nan nan nan nan nan nan nan nan nan nan nan nan nan nan nan nan nan nan nan nan nan nan nan nan nan nan nan nan nan nan nan nan nan nan nan nan nan -0 -0 -0 -0 -0 -0 -0 -0 -0 -0 -0 -0 -0 -0 -0 -0 -0 -0 -0 -0 -0 -0 -0 -0 -0 -0 -0 -0 -0 -0 -0
-14 -11 -7 -8 -8 -0 -0 -0 -0 -0 -2 nan nan nan nan nan nan nan nan nan nan nan nan nan nan nan nan nan nan nan nan nan nan nan nan nan nan nan nan nan nan nan nan nan nan nan nan nan nan nan nan nan nan nan nan nan nan -0 -0 -0 -0 -0 -0 -0 -0 -0 -0 -0 -0 -0 -0 -0 -0 -0 -0 -0 -0 -0 -0 -0 -0 -0 -0 -0 -0 -0
-0 -0 -0 -0 -0 -0 -0 -0 -0 -0 -0 -0 -2 -2 nan nan nan nan nan nan nan nan nan nan nan nan nan nan nan nan nan nan nan nan nan nan nan nan nan nan nan nan nan nan nan nan nan nan nan nan nan nan nan nan nan nan nan nan -0 -0 -0 -0 -0 -0 -0 -0 -0 -0 -0 -0 -0 -0 -0 -0 -0 -0 -0 -0 -0 -0 -0 -0 -0 -0 -0 -0
-0 -0 -0 -0 -0 -0 -0 -0 -0 -0 -0 -0 -0 -0 -1 -3 nan nan -0 nan nan nan nan nan nan nan nan nan nan nan nan nan nan nan nan nan nan nan nan nan nan nan nan nan nan nan nan nan nan nan nan nan nan nan nan nan nan nan -0 -0 -0 -0 -0 -0 -0 -0 -0 -0 -0 -0 -0 -0 -0 -0 -0 -0 -0 -0 -0 -0 -0 -0 -0 -0 -0 -4
-0 -0 -0 -0 -0 -0 -0 -0 -0 -0 -0 -0 -0 -0 -1 -3 nan nan -0 nan nan nan nan nan nan nan nan nan nan nan nan nan nan nan nan nan nan nan nan nan nan nan nan nan nan nan nan nan nan nan nan nan nan nan nan nan nan nan nan nan nan -0 -0 -0 -0 -0 -0 -0 -0 -0 -0 -0 -0 -0 -0 -0 -0 -0 -0 -0 -0 -0 -0 -3 -3 -3
-7 -1 -0 -0 -0 -0 -0 -0 -0 -0 -0 -0 -0 -0 -0 -3 nan nan nan nan nan -0 -0 nan nan nan nan nan nan nan nan nan nan nan nan nan nan nan nan nan nan nan nan nan nan nan nan nan nan nan nan nan nan nan nan nan nan nan nan nan nan nan nan nan nan nan -0 -0 -0 -0 -0 -0 -0 -0 -0 -0 -0 -0 -0 -0 -0 -0 -9 -9 -9 -3
-6 -5 -6 -4 -4 -4 -3 nan -1 -1 -0 -0 -0 -0 -0 -4 -4 -4 -4 -1 -1 -0 nan nan nan nan nan nan nan nan nan nan nan nan nan nan nan nan nan nan nan nan nan nan nan nan nan nan nan nan nan nan nan nan nan nan nan nan nan nan nan nan nan nan nan nan nan nan -0 -0 -0 -0 -0 -0 -0 -0 -0 -0 -0 -0 -0 -0 -13 -6 -6 -2
nan nan nan nan nan -16 -12 nan nan nan -4 -3 -2 -2 -0 -0 -0 -0 -2 nan nan nan nan nan nan nan nan nan nan nan nan nan nan nan nan nan nan nan nan nan nan nan nan nan nan nan nan nan nan nan nan nan nan nan nan nan nan nan nan nan nan nan nan nan nan nan nan nan nan nan nan -2 -0 -0 -0 -0 -0 -0 -0 -0 -0 -0 -6 -5 -5 -1
nan nan nan nan nan nan nan nan nan nan nan nan nan nan nan nan -1 -1 -1 -1 -1 -0 -1 nan nan nan nan -7 -10 -10 nan nan nan nan nan nan nan nan nan nan nan nan nan nan nan nan nan nan nan nan nan nan nan nan nan nan nan nan nan nan nan nan nan nan nan nan nan nan nan nan nan nan -5 -5 -1 -0 -0 -0 -0 -0 -0 -0 -0 -7 -7 -1
nan nan nan nan nan nan nan nan nan nan nan nan nan nan nan nan nan nan nan nan nan nan nan -1 -1 -0 -2 -5 -7 -7 nan nan nan nan -20 nan nan nan nan nan nan nan nan nan nan nan nan nan nan nan nan nan nan nan nan nan nan nan nan nan nan nan nan nan nan nan nan nan nan nan nan nan nan nan nan -7 -0 -0 -0 -0 -0 -0 -0 -1 -1 -1
nan nan nan nan nan nan nan nan nan nan nan nan nan nan nan nan nan nan nan nan nan nan nan nan nan -3 -2 -2 -5 -5 nan nan -26 -26 -11 nan nan nan nan nan nan nan nan nan nan nan nan nan nan nan nan nan nan nan nan nan nan nan nan nan nan nan nan nan nan nan nan nan nan nan nan nan nan nan nan nan -4 -4 -0 -0 -0 -0 -0 -0 -0 -0
nan nan nan nan nan nan nan nan nan nan nan nan nan nan nan nan nan nan nan nan nan nan nan nan nan -5 -2 -1 -0 -0 nan nan nan nan -1 nan nan nan nan nan nan nan nan nan nan nan nan nan nan nan nan nan nan nan nan nan nan nan nan nan nan nan nan nan nan nan nan nan nan nan nan nan nan nan nan nan -3 -3 -0 -0 -0 -0 -0 -0 -0 -0
nan nan nan nan nan nan nan nan nan nan nan nan nan nan nan nan nan nan nan nan nan nan -6 -2 -2 -2 -1 -2 -2 -2 -2 -4 -4 -4 nan nan -6 -6 nan nan nan nan nan nan nan nan nan nan nan nan nan nan nan nan nan nan nan nan nan nan nan nan nan nan nan nan nan nan nan nan nan nan nan nan nan nan nan nan -0 -0 -0 -0 -0 -0 -0 -0
nan nan nan nan nan nan nan nan nan nan nan nan nan nan nan nan nan nan nan nan nan nan nan nan nan nan nan -3 nan nan nan nan nan nan nan nan -2 -2 -3 -8 -8 -14 nan nan nan nan nan nan nan nan nan nan nan nan nan nan nan nan nan nan nan nan nan nan nan nan nan nan nan nan nan nan nan nan nan nan nan nan nan nan nan -5 -0 -0 -0 -0
nan nan nan nan nan nan nan nan nan nan nan nan nan nan nan nan nan nan nan nan nan nan nan nan nan nan nan nan nan nan nan nan nan nan nan nan nan nan -1 -3 -3 -9 nan nan nan nan nan nan nan nan nan nan nan nan nan nan nan nan nan nan nan nan nan nan nan nan nan nan nan nan nan nan nan nan nan nan nan nan nan nan nan nan -14 -4 -4 -0
nan nan nan nan nan nan nan nan nan nan nan nan nan nan nan nan nan nan nan nan nan nan nan nan nan nan nan nan -4 -4 nan nan nan nan nan nan nan nan -2 -3 -3 -8 nan nan nan nan nan nan nan nan nan nan nan nan nan nan nan nan nan nan nan nan nan nan nan nan nan nan nan nan nan nan nan nan nan nan nan nan nan nan nan nan nan -6 -6 -0
nan nan nan nan nan nan nan nan nan nan nan nan nan nan nan nan nan nan nan nan nan nan nan nan nan nan nan nan nan nan nan nan nan nan nan nan nan nan nan nan nan nan nan nan nan nan nan nan nan nan nan nan nan nan nan nan nan nan nan nan nan nan nan nan nan nan nan nan nan nan nan nan nan nan nan nan nan nan nan nan nan nan nan nan nan -2
-2 -13 nan nan nan nan nan nan nan nan nan nan nan nan nan nan nan nan nan nan nan nan nan nan nan nan nan nan nan nan nan nan nan nan nan nan nan nan nan nan nan nan nan nan nan nan nan nan nan nan nan nan nan nan nan nan nan nan nan nan nan nan nan nan nan nan nan nan nan nan nan nan nan nan nan nan nan nan nan nan nan nan nan -19 -19 -8
-14 nan nan nan nan nan nan nan nan nan nan nan nan nan nan nan -11 -11 -4 -6 -6 -12 nan nan nan -7 -4 -8 nan nan nan nan nan nan nan nan nan nan nan nan nan nan nan nan nan nan nan nan nan nan nan nan nan nan nan nan nan nan nan nan nan nan nan nan nan nan nan nan nan nan nan nan nan nan nan nan nan nan nan nan nan nan nan nan nan nan
-14 -22 nan nan nan nan nan nan nan nan nan -12 -8 -8 nan nan -6 -6 -2 -4 -4 -5 -9 -12 -12 -7 -4 -4 nan nan nan nan nan nan nan nan nan nan nan nan nan nan nan nan nan nan nan nan nan nan nan nan nan nan nan nan nan nan nan nan nan nan nan nan nan nan nan nan nan nan nan nan nan nan nan nan nan nan nan nan nan nan nan nan nan nan
-27 -24 -23 -20 -20 -19 -18 -24 nan nan nan -8 -7 -7 nan nan -9 -9 -5 -4 -4 -4 -7 -7 -7 -5 -4 -5 -8 -8 nan nan nan nan nan nan -2 -2 nan nan nan nan nan nan nan nan nan nan nan nan nan nan nan nan nan nan nan nan nan nan nan nan nan nan nan nan nan nan nan nan nan nan nan nan nan nan nan nan nan nan nan nan nan nan nan nan
-13 -15 -16 -18 -18 -12 -2 -8 -18 -18 -10 -7 -10 -10 nan nan nan nan nan nan nan nan nan nan nan nan -3 -4 -6 -6 -9 nan nan nan nan nan nan nan nan nan nan nan nan nan nan nan nan nan nan nan nan nan nan nan nan nan nan nan nan nan nan nan nan nan nan nan nan nan nan nan nan nan nan nan nan nan nan nan nan nan nan nan nan nan nan nan
-20 -13 -13 -9 -9 -5 -5 -10 -12 -12 -7 -11 nan nan nan nan nan nan nan nan nan nan nan nan nan -5 -3 -4 nan nan nan nan nan nan nan nan nan nan nan nan nan -0 nan nan nan nan nan nan nan nan nan nan nan nan nan nan nan nan nan nan nan nan nan nan nan nan nan nan nan nan nan nan nan nan nan nan nan nan nan nan nan nan nan nan nan nan
-3 -3 -3 -4 -4 -8 -12 -19 -20 -20 -7 -11 nan nan nan nan nan nan nan nan nan nan -5 nan nan -6 nan nan nan nan nan nan nan nan nan nan nan nan nan nan nan nan -0 nan nan nan nan nan nan nan nan nan nan nan nan nan nan nan nan nan nan nan nan nan nan nan nan nan nan nan nan nan nan nan nan nan nan nan nan nan nan nan nan nan nan nan
-6 -4 -4 -5 -5 -8 -16 nan -18 -18 -9 -11 nan nan nan nan -0 -0 -10 nan nan nan nan -4 -4 -4 -6 -10 -9 -9 -4 -4 -9 -9 nan nan nan nan nan nan nan nan nan nan nan nan nan nan nan nan nan nan nan nan nan nan nan nan nan nan nan nan nan nan nan nan nan nan nan nan nan nan nan nan nan nan nan nan nan nan nan nan nan nan nan nan
-6 -6 -5 -6 -6 -7 -9 -16 -8 -8 -6 -7 nan nan nan nan nan nan -12 -6 -6 -2 -3 -2 -2 -1 -1 -3 nan nan nan nan nan nan nan nan nan nan nan nan nan nan nan nan nan nan nan nan nan -0 -0 nan nan nan nan nan nan nan nan nan nan nan nan nan nan nan nan nan nan nan nan nan nan nan nan nan nan nan nan nan nan nan nan nan nan nan
-3 -5 -7 -7 -7 -5 -11 -9 -4 -4 -5 -5 -4 -4 nan nan -10 -10 nan nan nan nan nan nan nan nan nan nan nan nan nan nan nan nan nan nan nan nan nan nan nan nan nan nan nan nan nan nan nan nan -0 -0 nan nan nan nan nan nan nan nan nan nan nan nan nan nan nan nan nan nan nan nan nan nan nan nan nan nan nan nan nan nan nan nan nan nan
Wind_Speed
6 6 6 6 6 5 6 6 6 6 6 5 5 5 5 6 6 7 8 8 8 7 7 7 8 8 10 14 17 20 22 23 25 25 26 26 26 26 26 26 26 26 26 26 25 25 25 25 25 25 25 24 24 24 23 23 23 23 23 23 23 23 23 23 23 23 23 23 24 24 24 25 25 25 25 25 26 26 26 26 26 27 27 27 28 28
7 6 5 6 6 6 7 6 6 6 7 6 6 6 6 6 6 6 7 7 8 7 7 8 8 9 9 12 16 19 22 23 24 25 26 26 26 26 26 26 26 26 26 26 26 25 25 25 25 25 25 24 24 24 24 23 23 23 23 23 22 22 22 22 22 22 23 23 23 23 24 24 24 25 25 25 25 25 25 26 26 26 27 27 28 28
8 7 6 6 6 7 7 7 7 6 7 8 8 8 8 8 7 7 6 7 7 7 7 7 8 9 9 11 15 19 21 23 24 25 25 26 26 26 26 26 26 26 26 26 26 25 25 25 25 25 25 24 24 24 24 24 23 23 23 23 22 22 22 22 22 22 22 22 22 23 23 23 24 24 24 24 25 25 25 25 25 26 27 27 27 28
9 8 8 6 6 7 8 8 7 7 7 8 9 9 9 8 8 7 7 7 7 7 7 8 8 8 9 9 12 16 20 22 24 25 25 26 26 26 26 26 26 26 26 26 26 25 25 25 25 25 25 25 25 24 24 24 24 23 23 23 22 22 22 22 21 21 21 21 21 22 22 22 23 23 23 24 24 24 25 25 25 26 26 27 27 27
8 8 8 7 7 7 7 8 8 8 8 8 8 8 8 7 7 7 7 7 7 7 7 8 8 8 8 8 11 15 20 22 24 25 25 26 26 26 26 26 26 26 26 26 26 25 25 25 25 25 25 25 25 25 24 24 24 23 23 23 22 22 22 22 21 21 21 21 21 21 21 21 22 22 23 23 23 24 24 25 25 26 26 26 27 27
8 8 8 7 7 7 6 7 7 7 7 7 7 8 7 7 6 6 7 7 7 7 7 7 7 8 8 9 11 15 19 22 24 25 25 26 26 26 26 26 26 26 26 25 25 25 25 25 25 25 25 25 25 24 24 24 24 23 23 23 22 22 22 22 21 21 20 20 20 20 20 20 21 21 22 23 23 24 24 25 26 26 27 27 27 27
8 8 7 7 7 6 6 7 7 7 7 7 7 7 7 6 6 6 6 6 6 6 6 7 7 8 8 10 12 15 17 20 22 23 24 25 25 25 25 25 25 25 25 25 25 25 25 25 25 25 25 24 24 24 24 24 23 23 23 23 22 22 22 21 21 21 20 20 20 20 20 20 20 21 22 22 23 24 24 25 26 27 27 27 27 27
9 8 8 7 7 7 7 7 7 8 8 7 7 6 6 6 6 6 7 7 6 6 6 6 7 7 8 9 10 12 13 14 15 16 18 20 20 21 22 23 23 24 24 24 24 24 24 24 24 24 24 24 24 24 24 23 23 23 23 22 22 22 21 21 20 20 20 19 19 20 20 20 20 21 21 22 23 23 24 25 26 27 27 27 28 28
10 9 8 8 8 8 8 8 8 8 8 7 7 7 7 7 7 7 7 7 6 6 6 6 7 7 7 7 8 9 10 11 11 11 12 13 13 15 17 19 20 22 22 23 23 23 23 23 23 23 23 23 23 23 23 23 23 23 22 22 22 21 21 20 20 20 19 19 19 20 20 20 21 21 21 22 22 23 24 25 25 26 27 27 27 28
10 10 9 9 8 8 8 8 8 8 7 7 7 7 7 8 8 8 8 8 6 6 5 6 7 7 6 6 6 7 9 11 13 15 15 15 16 16 17 17 18 18 21 22 22 23 23 23 23 23 23 23 23 23 23 23 22 22 22 22 21 21 20 20 20 19 19 19 19 20 20 20 20 21 21 21 22 22 23 24 24 25 26 26 27 27
9 10 9 8 8 7 7 8 7 6 6 6 7 7 7 7 7 8 9 8 7 6 6 6 6 6 6 5 5 6 7 8 10 13 15 17 18 19 19 19 18 19 21 21 22 22 22 23 23 22 22 22 22 22 22 22 22 21 21 21 21 20 20 19 19 19 19 19 19 19 20 20 20 21 21 21 21 22 22 23 24 24 25 26 26 27
8 8 7 7 7 6 6 6 6 5 5 5 5 6 7 7 6 7 8 8 8 7 7 6 6 6 6 5 6 6 6 6 7 7 9 10 12 13 14 14 15 16 17 17 18 19 20 21 21 21 21 20 21 21 21 20 20 21 21 20 20 20 19 19 19 19 19 19 19 20 20 20 20 21 21 21 21 21 22 22 23 23 24 25 25 26
8 6 6 6 6 6 5 5 5 4 5 5 6 6 6 5 5 6 7 7 7 7 7 6 6 6 6 6 6 5 6 6 6 5 5 6 7 7 7 7 8 8 9 10 10 12 15 17 18 18 18 18 19 19 20 19 20 20 20 20 20 19 19 19 19 19 19 19 20 20 20 20 21 21 21 21 21 21 22 22 22 23 23 24 24 25
7 6 6 6 6 5 5 5 5 5 6 6 6 6 6 5 5 5 5 6 6 6 6 7 7 6 6 6 6 5 5 5 5 5 5 6 6 5 5 5 6 6 6 6 7 8 11 11 12 13 15 16 17 17 17 18 19 19 19 19 19 19 19 19 19 19 19 20 20 20 20 21 21 21 21 21 21 22 22 22 22 22 22 23 23 24
7 6 6 7 6 5 5 5 6 7 7 6 6 6 6 5 5 5 5 6 6 6 5 7 7 7 6 6 5 5 5 5 5 5 5 6 6 5 5 5 5 5 5 6 7 8 10 9 8 8 9 11 12 14 15 16 18 19 19 19 20 19 19 19 19 19 20 20 20 20 20 21 21 21 21 21 22 22 22 22 22 22 22 22 23 23
6 6 7 6 6 6 6 6 6 6 6 6 6 5 5 5 5 5 6 6 6 5 5 5 6 6 5 5 5 5 5 5 5 5 6 6 5 5 4 4 5 5 5 6 7 7 7 7 6 7 7 10 13 16 18 18 18 19 19 20 20 20 20 20 20 20 20 20 20 20 20 21 21 21 21 21 22 22 22 22 22 22 22 22 22 22
5 5 6 6 6 6 6 6 6 6 6 5 5 5 5 5 5 5 5 5 5 4 4 4 5 5 4 4 4 5 5 4 4 4 5 5 5 4 4 4 4 6 6 6 6 6 6 6 6 6 7 11 14 17 18 19 19 19 20 20 20 20 20 20 20 20 20 20 20 20 20 21 21 21 21 21 21 22 22 22 22 22 22 22 22 22
5 5 5 6 6 6 5 5 6 6 5 5 5 5 5 5 5 5 5 5 5 4 4 4 4 4 4 4 3 3 4 4 3 3 4 5 5 4 3 3 4 5 6 7 7 6 6 6 6 7 8 13 16 18 19 19 19 20 20 20 20 20 20 20 20 20 20 20 20 20 20 20 20 21 21 21 21 21 21 22 22 22 22 22 22 22
5 5 5 6 5 5 5 5 5 5 5 4 4 4 4 5 5 5 6 5 5 5 5 5 5 5 5 6 5 3 3 3 3 3 4 4 4 3 2 3 4 5 6 7 8 7 6 6 7 10 13 16 18 19 19 19 20 20 20 20 20 20 20 20 20 20 20 20 20 20 20 20 20 20 20 21 21 21 21 21 22 22 22 22 22 22
7 6 5 5 5 5 5 6 5 5 5 5 4 5 5 5 5 6 6 5 5 6 6 6 6 6 6 6 6 4 3 3 3 3 4 4 4 3 2 3 4 5 7 7 7 7 6 6 7 10 14 16 17 19 19 19 20 20 20 20 20 20 20 20 20 20 20 20 20 20 20 20 20 20 20 20 20 21 21 21 21 22 22 22 22 22
8 7 6 5 4 4 5 5 5 6 6 5 5 5 5 5 6 6 6 5 5 6 6 6 7 7 6 6 6 4 3 3 3 3 3 4 4 4 3 3 4 5 7 7 7 6 5 6 6 7 10 14 16 18 19 19 19 20 20 20 20 20 20 20 20 20 20 20 20 20 20 20 20 20 20 20 20 20 20 21 21 21 22 22 22 22
8 8 8 7 6 6 6 6 7 7 7 6 5 5 5 5 6 6 6 6 6 6 7 7 8 7 7 7 6 4 3 3 3 3 2 3 4 4 3 3 4 5 7 7 6 5 5 5 6 7 10 14 16 18 18 19 19 19 20 20 20 20 20 20 20 20 19 19 20 20 20 20 20 20 20 20 20 20 20 20 21 21 21 21 21 22
10 10 10 9 9 8 8 8 8 8 8 7 7 7 5 5 6 6 6 6 6 7 8 8 8 7 7 7 6 4 4 4 3 3 3 4 5 4 3 3 3 5 7 6 6 5 5 5 6 7 10 14 17 18 18 19 19 19 19 20 20 20 20 19 19 19 19 19 19 19 19 19 19 20 20 20 19 20 20 20 20 20 21 21 21 21
10 10 10 9 9 8 8 8 8 7 7 7 7 7 7 7 8 8 7 7 7 7 7 7 7 7 7 6 6 5 4 4 4 3 3 5 5 5 3 3 4 5 6 6 5 4 4 5 6 6 7 12 15 17 18 18 19 19 19 19 19 19 19 19 19 19 19 19 19 19 19 19 19 19 19 19 19 19 19 19 20 20 20 20 20 21
9 9 8 8 9 10 10 10 10 9 9 8 8 8 9 10 10 10 9 9 8 7 6 7 7 6 5 5 5 4 4 4 5 4 4 4 4 4 4 4 4 5 6 5 4 4 4 5 5 5 5 8 12 15 17 18 18 19 19 19 19 19 19 19 19 19 18 18 18 18 18 18 19 19 19 19 19 19 19 19 19 19 19 20 20 20
12 12 13 15 17 19 20 20 19 18 17 14 11 9 9 9 10 10 9 8 7 7 7 6 6 5 4 4 4 4 3 4 5 5 4 4 4 4 4 4 4 5 6 5 4 4 4 5 5 5 4 6 9 13 15 17 18 18 19 19 19 19 19 18 18 18 18 18 18 18 18 18 18 18 18 18 18 18 18 18 18 18 19 19 19 19
21 23 25 26 26 26 26 26 26 26 26 23 20 17 14 11 9 8 7 6 5 5 6 6 6 5 4 4 4 4 3 3 4 5 5 4 4 5 4 3 4 5 5 5 4 4 5 5 5 5 4 4 6 9 13 15 17 18 18 19 18 18 18 18 18 18 18 17 17 17 17 17 17 17 17 17 17 17 18 18 18 18 18 17 15 14
22 23 23 24 25 25 26 26 26 26 26 26 26 25 21 14 10 8 6 4 4 4 5 5 5 5 4 4 3 3 3 3 4 4 4 3 4 4 4 3 4 4 5 4 4 4 5 6 5 5 4 4 5 6 10 13 15 17 17 18 18 18 17 17 17 17 17 17 17 17 16 16 16 16 16 17 17 17 17 17 17 17 16 13 9 7
16 18 19 20 20 21 22 22 22 22 23 24 25 24 19 12 9 7 5 3 3 4 4 4 4 4 4 4 3 3 3 4 4 4 4 3 3 4 3 3 3 4 4 3 3 4 4 5 4 4 4 6 5 5 7 10 12 13 14 15 16 16 16 16 16 16 16 16 16 16 16 16 16 16 16 16 16 16 16 17 16 14 11 8 7 6
9 10 11 12 13 14 14 13 14 15 18 20 21 20 15 10 8 7 6 4 4 4 4 4 4 4 3 3 3 3 3 3 3 3 4 3 3 4 3 3 4 4 3 2 3 3 4 3 3 4 4 6 6 5 5 6 6 7 8 10 11 12 14 14 15 15 15 15 15 15 15 15 15 15 15 15 15 15 16 16 15 11 7 6 6 6
6 7 7 7 7 7 7 7 7 9 11 13 14 13 11 8 7 6 6 5 5 5 5 4 4 3 3 2 2 2 2 2 2 3 3 3 3 3 3 4 4 4 3 3 2 3 3 3 2 2 2 4 4 4 4 4 4 4 4 5 6 7 11 12 13 13 14 14 14 15 15 15 15 14 14 14 15 15 15 16 14 11 6 6 6 6
6 6 5 5 5 4 4 4 4 5 6 6 7 7 7 6 6 5 5 5 5 5 5 4 4 3 3 3 3 3 3 3 2 2 3 2 3 3 3 4 4 4 4 4 4 3 3 3 2 1 1 1 2 2 3 4 4 4 4 3 4 5 8 10 10 11 11 12 12 13 14 14 14 14 14 14 14 15 15 16 14 11 7 6 6 7
5 5 5 5 5 4 4 4 4 4 4 4 4 4 5 5 5 5 5 4 4 4 4 4 4 4 4 4 5 5 4 4 4 5 4 3 3 3 3 3 4 4 4 4 4 4 4 4 3 2 1 1 1 2 2 3 3 4 4 4 4 4 6 7 7 7 7 8 9 10 11 12 13 13 13 14 14 14 15 15 15 13 10 6 6 6
5 6 5 5 5 4 4 4 4 4 4 4 4 4 4 4 4 4 4 4 4 4 4 5 5 6 6 5 6 6 6 6 6 7 7 4 3 3 3 3 4 4 3 4 4 4 4 4 3 3 2 2 1 1 2 3 4 4 4 4 4 4 4 4 4 4 5 5 5 6 7 8 9 11 11 12 13 13 14 15 15 15 14 9 7 6
5 5 5 5 5 5 5 4 4 4 4 4 4 4 4 4 4 4 4 4 4 4 4 5 5 6 6 6 7 7 7 6 6 7 7 5 4 3 3 4 4 4 4 4 4 4 4 4 4 4 3 3 2 2 2 3 3 4 4 4 4 4 4 4 4 4 4 4 4 4 4 4 5 6 8 9 11 12 13 14 15 16 16 14 11 8
5 5 5 5 5 5 5 5 5 5 5 4 4 4 4 4 4 4 4 4 4 5 5 5 5 6 6 7 7 7 6 5 4 5 6 5 4 3 3 3 3 4 4 4 4 4 4 4 4 4 5 4 3 3 2 2 2 2 3 4 4 4 4 4 4 4 3 3 3 3 3 3 4 4 5 8 10 12 13 14 15 15 16 16 15 12
5 5 5 4 4 4 5 5 5 5 5 4 4 4 4 4 4 4 4 4 5 5 6 6 6 6 7 7 7 6 6 5 5 6 7 6 5 4 4 3 4 4 5 5 5 4 4 4 4 4 4 5 4 3 2 1 1 1 2 3 4 4 4 4 4 3 3 3 4 4 4 4 4 4 5 8 10 11 12 13 13 14 15 15 15 15
5 5 5 4 4 4 4 4 5 5 5 5 5 5 5 5 5 5 5 5 5 6 6 6 6 7 9 9 9 8 8 8 8 8 9 8 7 6 6 5 5 5 6 6 5 5 5 5 5 4 4 4 4 4 3 2 1 1 2 2 2 3 3 4 3 3 3 4 4 5 5 5 4 4 4 5 5 5 6 6 8 10 12 12 13 14
4 5 5 5 4 4 4 4 5 5 5 5 6 6 6 6 6 6 5 5 5 6 6 6 6 7 8 10 10 11 10 10 10 10 10 9 8 7 7 7 6 6 6 6 6 6 6 5 5 4 4 3 3 3 2 2 2 2 2 1 1 2 3 3 3 4 4 4 4 5 5 4 3 3 3 2 3 3 3 4 5 6 7 6 8 10
5 5 4 5 5 4 5 5 6 5 5 6 7 7 6 6 6 5 5 5 5 6 6 6 7 7 7 8 9 10 10 9 9 9 8 8 7 7 7 7 7 6 6 6 6 7 6 6 5 4 4 3 3 2 2 2 3 3 3 1 1 2 3 3 3 4 3 4 4 4 4 3 3 2 2 2 2 3 3 3 4 4 4 4 5 5
5 5 5 5 5 5 6 6 6 6 6 6 6 6 5 5 5 5 4 4 5 5 5 5 5 6 6 7 7 8 9 9 9 9 8 8 8 8 7 7 7 6 6 6 6 7 6 6 5 5 4 4 4 4 3 3 3 4 4 3 2 2 3 3 3 3 3 3 3 4 4 3 3 3 3 3 3 3 3 3 3 4 4 3 3 3
6 6 5 5 5 5 5 5 6 6 6 5 5 5 5 5 4 4 4 4 4 4 4 4 4 5 6 6 6 7 7 8 9 9 9 9 9 8 8 8 7 6 6 6 6 6 6 6 5 5 5 4 4 4 4 3 3 4 5 3 2 2 1 2 2 2 3 3 3 3 4 3 3 3 3 3 3 3 3 3 4 5 5 3 2 2
5 5 5 5 5 5 6 6 6 6 5 4 4 5 4 4 4 5 5 5 5 5 5 5 5 6 7 7 6 6 6 7 8 8 8 8 8 8 8 8 8 7 6 5 5 5 5 5 5 5 5 4 4 5 5 4 3 4 4 3 3 2 1 2 1 1 2 3 3 3 3 3 3 2 2 2 2 2 2 4 5 6 5 3 2 2
5 5 5 5 5 6 6 5 5 4 4 5 5 5 4 4 5 5 6 6 6 6 6 5 5 6 7 7 7 6 5 5 6 7 7 8 8 8 8 8 8 7 5 4 4 3 3 4 5 5 4 4 4 4 4 4 3 3 3 3 4 4 3 2 2 2 2 2 2 3 3 2 2 1 0 1 1 2 2 2 3 3 4 3 2 2
5 5 5 5 5 5 5 5 4 4 4 4 5 5 4 4 4 5 5 6 6 7 7 6 6 6 6 6 6 6 5 4 4 4 5 7 8 9 8 7 6 6 5 5 4 3 3 3 4 4 3 3 4 5 5 4 4 3 3 4 4 4 4 2 2 2 2 2 2 2 2 2 1 1 0 1 1 2 2 2 2 3 3 3 2 2
5 5 5 4 4 5 6 5 5 4 5 5 5 5 4 4 4 4 5 5 6 7 7 6 6 6 6 6 6 6 5 5 5 4 4 4 5 5 6 6 6 5 5 5 5 4 4 4 3 3 3 3 4 5 5 4 4 3 3 3 3 3 3 2 2 2 2 2 2 1 1 2 2 1 0 1 2 2 2 2 2 3 3 2 2 2
5 5 5 5 5 5 5 5 5 5 6 6 5 5 5 4 4 4 5 5 6 6 6 6 6 6 7 6 6 6 6 6 6 6 5 4 4 4 4 5 5 6 5 5 5 5 5 4 4 3 3 3 3 4 4 3 3 3 3 3 3 2 2 2 2 2 3 3 2 2 2 2 2 1 1 1 1 2 2 2 2 2 2 2 2 2
6 6 6 6 5 5 5 5 5 5 6 6 6 5 5 5 5 6 6 5 5 5 6 5 5 6 7 6 6 6 7 7 6 6 6 5 4 3 3 3 4 4 5 5 5 5 5 4 4 4 4 3 3 3 3 3 3 3 3 3 3 3 3 3 2 2 3 3 3 3 3 3 2 2 2 0 1 1 2 2 3 2 2 2 2 2
6 6 6 6 6 6 5 5 5 6 6 6 6 5 5 6 7 8 6 5 4 4 4 5 6 6 6 6 6 6 7 7 6 6 5 5 4 3 2 2 3 3 3 3 4 3 3 4 4 4 4 4 4 3 3 3 3 3 3 3 3 3 3 3 2 2 2 3 3 3 3 3 3 3 3 1 0 1 2 3 3 3 3 2 2 1
6 6 6 6 6 6 6 6 6 6 6 7 6 6 5 4 4 4 4 4 4 4 4 5 6 7 7 7 7 7 6 6 6 6 5 4 3 3 2 2 2 2 2 2 2 2 1 2 3 4 6 6 6 4 3 3 3 3 3 3 3 3 3 2 2 2 3 3 3 2 2 2 2 2 3 2 1 1 2 2 3 3 3 2 2 1
6 6 6 6 6 6 6 6 6 6 6 7 7 6 5 4 3 3 3 3 4 4 5 6 6 7 7 7 7 7 7 7 6 6 6 4 3 3 2 2 2 2 2 2 2 1 1 1 1 2 5 8 9 8 5 4 3 3 3 3 2 2 2 2 2 2 3 3 3 2 2 2 2 2 3 2 2 1 1 2 2 3 3 2 1 1
Wind_Direction
288 292 294 295 294 290 286 284 284 285 286 283 280 279 278 277 274 270 268 268 267 266 266 266 266 267 269 273 275 277 278 280 281 282 282 282 283 283 283 283 283 283 282 281 280 280 279 279 278 278 278 277 277 277 278 278 279 279 280 280 280 280 281 281 282 282 282 283 283 283 283 283 283 283 283 283 282 282 282 283 282 282 282 282 283 283
289 292 292 293 292 289 287 287 285 283 285 284 281 279 279 278 276 273 270 267 263 261 262 264 265 266 266 270 273 275 277 278 279 280 281 281 282 282 282 283 282 282 282 281 280 279 278 278 277 277 277 277 277 277 277 278 278 278 279 279 279 279 280 280 281 281 282 282 282 282 282 282 283 283 284 284 285 285 285 286 286 285 284 283 282 281
289 289 288 289 289 288 288 290 287 283 282 282 281 279 278 278 277 275 272 270 266 263 262 264 267 268 268 270 273 275 276 277 278 279 279 280 280 281 281 281 281 281 281 281 280 279 278 278 277 277 277 277 277 277 277 277 277 278 278 278 278 279 279 280 280 280 281 281 281 281 282 282 283 284 285 285 286 286 287 287 286 285 285 284 282 281
286 286 287 287 285 283 283 285 284 282 279 279 279 278 275 275 274 272 270 270 269 268 267 266 268 269 271 272 273 274 275 276 277 278 278 279 279 279 280 280 280 280 280 280 280 279 279 278 278 277 277 277 277 277 277 277 277 278 278 278 279 279 280 280 280 281 281 281 281 282 282 283 284 285 286 286 286 287 286 286 285 285 284 283 283 282
281 283 285 285 282 279 277 277 278 278 277 276 275 274 271 269 269 269 269 268 268 269 269 268 267 267 269 270 272 273 274 275 276 277 277 278 278 278 278 279 279 279 279 279 279 279 279 278 278 278 278 277 277 277 278 278 278 279 279 280 281 281 282 282 282 282 282 282 283 283 284 285 286 287 287 287 287 287 287 286 285 285 284 283 283 282
278 277 279 277 276 274 275 274 275 275 276 274 272 269 267 265 266 267 268 269 268 268 268 268 266 266 266 267 270 272 273 275 276 277 277 278 278 278 278 278 278 278 279 279 279 279 279 279 279 279 279 279 279 279 279 280 280 281 281 282 283 283 284 284 284 284 284 284 284 285 286 287 288 288 288 288 288 288 287 286 286 285 284 283 283 282
272 270 271 271 271 271 272 271 271 271 273 273 272 270 268 266 265 265 264 265 266 266 267 267 266 265 264 265 268 270 272 274 275 276 277 277 278 278 278 278 278 278 278 279 279 279 279 279 279 280 280 280 281 281 281 282 282 283 283 284 284 284 285 285 285 285 285 285 286 287 287 288 289 289 289 288 288 287 286 286 285 284 284 283 282 282
270 268 266 268 269 270 268 266 266 266 268 271 273 273 272 269 266 264 261 259 259 260 263 265 264 263 261 261 264 266 269 272 273 274 276 276 276 277 277 277 277 278 278 278 278 278 278 279 279 279 280 280 281 281 282 282 282 283 283 284 284 284 285 285 285 285 285 286 287 288 288 289 289 289 288 287 286 286 285 284 284 283 283 282 282 282
267 267 265 264 265 267 268 265 263 263 266 268 270 271 273 272 271 269 266 262 258 255 257 260 261 261 258 258 259 262 264 266 267 268 270 271 272 273 274 275 276 276 276 277 277 277 277 278 278 278 279 279 280 280 281 281 281 282 283 283 283 284 285 285 285 286 286 287 288 288 289 288 288 287 287 286 285 284 284 283 283 283 282 282 281 281
261 263 264 262 261 262 265 266 265 263 262 265 265 266 268 271 273 274 273 269 265 260 258 259 261 262 262 259 258 259 262 264 265 266 267 268 269 270 271 273 274 275 276 276 276 277 277 277 278 278 279 279 280 280 281 281 282 282 283 283 284 285 285 285 286 286 287 287 288 288 288 287 286 286 285 284 283 283 283 283 283 282 282 281 281 280
258 258 260 260 259 257 257 261 263 263 260 262 262 261 260 261 265 269 272 271 269 266 262 260 260 262 265 264 260 258 259 262 264 266 267 268 270 271 272 273 274 275 276 277 277 278 278 279 279 279 280 281 281 281 282 282 283 283 283 284 284 285 285 285 286 286 286 286 286 286 286 286 285 284 283 283 282 282 282 282 282 282 282 282 281 280
256 256 256 257 257 256 255 258 260 260 257 257 258 258 256 252 252 257 262 266 267 267 266 263 261 259 259 261 261 259 257 258 260 263 265 267 269 270 272 273 274 275 276 278 278 279 279 280 280 281 281 281 282 281 281 282 282 282 282 283 283 283 284 284 284 284 285 285 285 285 285 285 284 284 282 282 282 282 282 282 283 283 283 282 282 281
253 254 255 256 256 256 256 258 259 257 251 249 251 253 254 250 247 247 253 258 262 265 266 266 264 259 255 255 257 259 259 258 258 259 261 263 263 265 267 270 271 273 274 276 277 277 278 279 280 280 280 280 280 279 279 279 279 280 280 281 281 281 282 282 282 283 283 284 284 285 285 284 284 283 282 282 282 282 282 282 283 283 283 283 283 282
253 254 254 255 255 255 254 254 254 254 251 248 248 250 253 254 253 252 254 258 260 261 264 265 265 262 258 254 254 255 257 259 260 260 259 258 257 257 260 263 266 267 268 270 270 271 271 274 276 277 277 276 277 277 276 277 278 278 278 279 279 280 280 280 281 281 282 283 283 284 284 284 283 283 283 282 282 282 282 283 283 284 285 285 284 283
252 254 254 254 255 254 251 250 249 250 250 248 250 253 257 258 257 256 257 260 261 263 263 264 265 264 261 254 250 248 249 253 256 258 259 259 256 252 250 258 262 264 263 264 265 266 267 267 268 269 270 269 269 270 271 273 274 275 276 276 277 277 278 278 279 280 281 282 283 283 284 284 283 283 283 283 283 283 283 284 284 285 286 286 286 284
251 251 252 254 254 252 249 248 248 250 252 251 251 251 253 255 254 253 254 258 262 264 263 265 267 267 261 249 238 232 234 240 246 251 256 259 256 249 237 247 256 261 260 259 261 263 264 262 260 259 261 263 265 266 267 269 271 272 273 274 275 275 276 277 278 279 280 281 282 283 283 283 283 284 284 284 284 284 285 285 285 286 287 287 287 286
248 248 249 251 252 251 249 248 249 250 252 251 250 247 246 248 249 250 252 255 259 261 258 260 264 268 270 256 234 218 213 222 232 241 248 256 256 247 223 229 247 257 259 257 257 258 259 257 256 255 255 259 262 265 266 268 270 271 272 273 274 274 275 276 277 278 279 280 281 282 283 283 283 284 284 284 284 285 285 285 286 286 286 287 288 288
244 243 245 247 249 250 249 248 248 249 250 249 249 248 247 247 247 249 251 252 254 255 256 255 256 260 269 270 254 220 196 204 219 234 242 251 253 245 214 215 236 251 257 257 257 256 254 253 251 251 254 259 262 264 266 268 269 270 271 272 273 274 275 276 277 278 279 280 281 282 283 283 283 283 284 284 284 284 285 285 285 286 286 286 287 287
253 245 242 244 246 248 248 248 247 248 248 247 246 247 249 248 247 247 248 248 248 249 252 254 254 255 257 262 260 244 198 198 210 229 241 250 252 245 209 209 233 249 256 257 257 256 254 254 253 255 257 260 263 265 266 268 269 270 271 272 273 274 275 276 277 278 279 280 281 282 283 283 283 283 283 283 284 284 285 285 286 286 286 286 286 285
264 258 248 245 246 247 245 244 243 244 245 245 245 246 248 248 247 246 246 246 245 246 247 250 252 254 256 260 262 256 220 204 212 231 245 253 255 247 211 208 231 247 254 255 255 255 254 254 255 258 260 261 263 265 267 268 269 271 272 272 273 274 275 276 277 278 279 280 281 282 282 283 283 283 283 284 284 285 285 286 286 286 286 286 285 284
274 270 264 260 257 254 251 245 242 242 244 244 244 243 245 246 246 245 244 244 244 245 244 247 248 250 254 258 259 253 224 205 211 230 248 253 252 244 213 204 221 241 252 255 255 253 250 250 251 254 257 260 262 264 266 267 269 270 271 272 273 274 275 276 277 278 279 280 280 281 282 282 283 283 284 284 285 285 286 286 286 286 286 286 285 284
275 274 272 269 266 265 266 265 260 256 252 246 243 242 242 243 244 245 243 243 243 243 243 245 247 249 252 255 256 250 224 208 209 222 245 255 254 245 213 198 213 235 249 254 255 251 245 246 248 250 253 257 260 262 264 266 267 269 270 271 272 273 274 275 276 277 278 279 280 281 282 283 284 284 285 286 286 286 286 286 286 286 286 286 286 285
266 266 267 265 263 263 265 266 266 264 258 251 246 244 243 242 244 246 245 242 243 244 246 248 250 251 251 252 253 249 232 216 210 214 234 252 256 251 223 207 220 237 247 252 254 252 243 244 246 249 253 256 258 260 262 264 266 267 268 269 271 272 273 274 275 276 278 279 280 281 283 284 285 286 286 287 287 288 288 288 287 287 287 287 287 286
259 260 261 260 259 258 259 261 262 260 257 252 249 247 246 245 245 246 246 245 245 247 249 251 253 252 250 249 249 247 234 218 209 209 227 247 254 255 241 229 236 245 250 251 250 249 246 247 245 246 249 253 256 258 260 262 263 265 267 268 269 270 272 273 275 276 277 279 280 282 283 284 285 286 287 288 289 290 290 290 289 289 289 288 288 287
263 263 263 262 259 257 256 257 257 256 253 250 249 248 248 247 247 247 246 245 245 247 249 250 250 249 247 245 245 243 232 212 204 205 221 243 253 254 247 239 244 251 255 253 247 241 244 249 249 246 244 250 253 255 257 259 261 263 265 266 267 269 271 272 274 276 277 279 280 282 283 284 286 287 289 290 291 292 293 293 293 292 291 290 289 288
284 282 280 278 275 272 269 266 265 263 262 260 258 256 254 251 249 247 244 242 240 241 243 244 245 245 244 240 241 241 231 209 202 203 213 236 252 256 249 240 243 251 258 257 248 239 240 249 251 248 240 244 248 251 253 256 258 260 262 264 266 268 270 272 274 275 277 279 281 282 283 285 286 288 290 292 294 295 296 297 296 296 295 293 291 289
291 290 288 286 284 282 279 277 275 274 272 272 272 272 271 265 257 250 244 238 234 233 236 239 242 244 242 238 236 235 228 214 205 202 205 225 247 256 252 244 245 251 259 259 250 240 239 247 250 248 241 236 239 244 248 251 254 257 260 262 264 266 268 271 273 275 277 279 281 283 285 286 288 289 292 294 296 298 299 300 301 300 299 298 295 291
291 291 291 290 289 288 285 283 282 281 280 279 279 279 280 277 271 262 251 232 218 218 224 229 234 238 238 233 230 227 223 220 212 202 192 211 238 251 252 248 246 250 256 261 255 245 241 246 248 247 244 237 233 236 243 247 251 254 257 260 262 265 267 270 273 275 278 280 282 284 286 287 289 291 293 295 297 299 301 303 304 304 303 302 300 296
291 292 293 294 294 294 293 290 288 286 285 284 285 285 285 283 279 274 266 245 222 217 222 223 226 232 237 236 234 230 225 228 220 203 182 204 234 248 249 248 245 245 249 261 264 258 246 243 241 240 242 239 235 232 237 242 247 252 255 258 261 264 266 269 272 275 278 280 283 285 286 288 289 291 293 296 298 300 303 305 306 306 306 303 298 292
302 303 304 305 305 304 303 301 298 295 293 293 292 292 290 286 281 277 277 270 260 252 250 241 236 234 237 241 242 239 233 231 217 197 176 204 233 246 243 243 240 236 229 248 263 266 256 245 234 228 232 236 235 230 228 232 237 243 249 256 259 262 265 268 271 274 277 279 282 284 285 287 289 291 294 296 299 301 304 306 307 307 305 300 293 288
321 320 318 317 316 316 315 313 311 308 306 305 303 301 297 291 284 278 276 272 268 265 264 259 250 241 238 244 251 255 254 244 218 188 170 205 234 243 233 238 237 230 213 216 238 260 266 259 247 237 237 238 237 234 226 224 224 227 231 242 252 258 261 264 268 271 274 277 279 282 284 286 288 291 294 296 299 301 304 306 307 307 304 299 293 288
319 317 313 313 315 317 318 319 318 318 316 315 314 312 309 306 303 299 293 287 282 276 271 266 262 257 255 262 269 275 279 275 256 222 193 219 239 242 221 230 235 233 217 213 221 240 261 265 268 277 305 261 251 244 233 224 220 218 217 223 236 249 255 258 263 267 270 274 277 279 282 285 287 290 292 295 298 300 303 305 306 305 301 296 291 288
306 305 304 305 307 309 311 314 314 313 313 312 312 312 312 313 314 315 316 314 310 305 300 297 294 290 284 279 275 273 273 273 267 258 246 240 244 242 220 222 229 233 227 222 224 233 248 256 263 274 285 257 246 241 237 226 219 212 208 213 224 239 248 250 255 260 262 268 273 277 280 283 286 288 291 293 296 298 301 302 302 301 298 292 286 283
299 299 300 302 303 304 304 304 303 302 301 299 298 298 300 302 306 308 310 309 308 307 304 303 300 295 288 280 272 267 264 262 261 260 254 244 241 239 226 222 224 228 229 228 227 231 242 246 252 258 264 252 234 220 217 218 215 209 201 205 214 227 237 238 241 247 252 258 264 271 275 280 283 286 288 290 292 294 297 299 300 301 302 299 293 288
297 298 299 301 301 301 300 298 297 295 293 291 289 289 290 291 293 295 296 295 293 290 287 285 283 280 277 272 269 266 264 263 262 261 255 246 242 241 236 227 224 223 227 228 226 227 237 237 236 238 250 254 247 228 210 210 208 205 199 203 209 217 223 222 227 235 244 250 256 261 265 270 275 278 282 284 286 288 291 296 300 304 307 307 306 303
297 297 297 297 298 298 298 297 296 295 293 289 287 286 287 287 289 289 290 290 288 286 283 278 273 271 269 270 270 272 274 279 279 275 270 261 255 251 249 237 228 224 229 232 230 229 233 234 230 229 235 246 249 244 228 217 205 202 206 210 214 217 220 217 217 221 233 243 251 257 259 261 263 266 270 277 280 284 289 296 302 306 309 310 310 310
295 294 293 292 293 294 295 295 296 296 296 294 292 290 290 290 291 291 290 289 288 287 286 282 278 274 272 273 274 277 283 289 289 285 281 278 274 267 263 255 240 229 229 233 233 232 231 232 231 229 230 237 240 240 227 208 190 210 223 218 217 220 226 223 217 213 221 236 245 252 256 259 260 262 265 274 279 285 291 297 302 306 309 310 311 312
292 291 290 289 289 291 293 295 296 297 297 296 295 294 292 289 288 288 288 286 285 284 284 283 281 277 272 269 268 269 272 273 274 273 273 273 270 267 263 261 250 238 231 232 232 231 227 228 227 227 230 232 234 231 217 190 186 210 231 228 223 222 229 226 220 214 217 232 243 251 256 257 259 261 267 274 280 286 291 293 297 302 307 308 310 311
290 288 287 288 288 289 291 293 294 294 293 292 291 290 289 287 284 282 280 280 278 277 275 275 276 275 272 270 268 266 265 264 262 261 261 260 259 258 257 257 253 244 235 231 228 226 222 222 221 222 227 232 231 224 207 189 187 194 209 228 256 253 240 228 220 216 217 225 238 249 258 259 260 262 267 273 278 281 283 286 291 297 303 305 307 308
288 286 285 287 288 288 288 289 290 291 292 291 291 290 289 287 285 282 277 275 273 271 270 269 270 270 270 269 267 265 263 259 256 254 253 250 248 248 251 253 252 248 238 230 224 220 217 218 220 223 228 233 230 220 198 187 184 181 179 188 235 251 244 225 216 212 210 214 223 236 249 255 258 259 259 259 260 263 267 275 286 293 298 300 302 305
286 286 286 288 289 289 287 287 288 289 289 290 291 290 288 286 285 284 282 278 275 273 274 273 272 271 270 266 263 261 258 256 253 250 248 244 243 244 247 249 249 246 238 228 220 215 212 213 218 223 228 235 239 237 223 200 191 192 194 201 215 228 232 218 209 204 205 210 216 223 233 247 255 256 254 253 251 249 253 264 275 284 289 287 292 302
290 290 291 291 291 289 286 286 286 287 287 287 287 286 284 283 283 284 285 284 283 282 283 284 285 284 281 276 269 263 259 256 253 251 250 247 245 245 247 247 246 241 233 224 217 212 208 210 215 220 224 227 234 239 237 216 204 203 210 206 202 207 247 240 223 202 197 210 217 221 224 234 242 248 250 254 256 259 262 263 272 279 285 285 289 297
292 292 291 290 288 286 285 285 286 286 286 286 285 283 282 281 283 285 287 288 288 289 289 288 288 287 286 285 282 276 268 262 258 255 254 251 249 248 248 246 243 237 226 220 214 210 207 210 215 221 223 221 226 234 241 232 219 212 213 201 194 197 248 256 249 217 200 209 212 213 214 220 226 235 242 250 261 269 276 276 278 282 287 290 295 297
291 289 288 287 286 286 285 284 283 282 283 285 285 285 284 283 284 286 287 289 290 291 291 290 287 285 283 283 283 283 281 275 268 263 259 255 251 247 247 243 239 232 223 220 214 208 203 212 219 222 220 219 224 230 237 234 225 213 203 195 194 198 211 216 200 181 192 213 217 214 209 206 202 200 253 272 279 284 290 287 286 285 286 286 289 290
287 287 286 286 286 285 283 281 281 282 284 285 286 286 285 283 284 285 287 288 289 289 289 289 288 285 281 281 283 286 290 290 286 278 269 261 255 250 244 238 232 228 223 222 220 215 208 214 218 218 213 214 221 227 232 233 228 216 203 197 200 206 216 207 176 163 181 209 222 220 199 160 128 101 27 310 301 299 298 296 293 291 290 290 291 291
286 285 284 283 282 283 284 286 289 291 291 288 286 285 284 283 283 283 283 284 285 285 285 285 284 282 281 284 287 291 295 296 295 290 281 268 256 246 238 231 226 223 222 223 224 224 223 220 214 206 198 208 218 225 229 228 225 220 211 201 203 213 229 225 202 184 186 200 210 205 148 113 103 99 186 289 296 300 296 287 282 282 286 291 296 300
288 288 288 288 289 291 294 297 297 294 292 289 286 283 282 282 282 281 279 278 278 280 282 281 279 278 279 282 285 287 288 290 291 290 287 277 262 248 238 233 228 224 222 222 223 225 226 222 211 196 187 198 213 223 224 217 216 216 216 206 203 209 223 227 216 201 190 197 196 178 133 113 109 122 202 260 292 302 301 295 286 280 282 289 298 306
293 295 296 298 299 299 298 297 293 289 287 286 284 282 281 279 278 278 277 275 275 277 279 279 278 277 276 276 275 274 276 280 283 286 289 284 273 255 237 235 234 232 229 227 226 225 223 216 206 195 188 195 208 218 217 205 203 207 209 205 205 210 222 225 216 198 189 199 193 176 150 150 160 175 182 202 302 310 309 307 302 297 293 296 301 308
299 299 299 299 298 297 294 291 289 287 287 287 286 285 281 278 277 278 278 277 277 278 279 280 280 279 277 275 275 276 279 282 284 286 287 284 278 264 243 234 233 236 237 232 228 223 217 211 206 203 200 202 210 218 217 201 196 197 201 203 207 212 221 223 213 194 186 197 194 184 168 169 169 166 156 158 240 295 306 309 307 304 301 302 303 306
298 296 295 294 293 292 292 291 290 290 290 290 289 288 284 279 276 275 277 282 285 286 286 285 285 284 284 284 285 284 283 283 281 281 280 278 274 265 250 236 230 231 232 227 217 206 194 203 212 215 214 213 214 216 219 207 197 192 198 205 208 210 216 219 209 193 186 192 191 184 175 169 155 142 136 147 176 265 303 306 304 300 299 303 303 299
294 292 291 290 289 290 291 291 292 291 291 291 291 291 290 290 291 290 291 291 290 288 285 283 281 280 279 279 279 277 275 273 272 272 273 273 270 263 251 239 230 224 220 212 198 181 159 166 210 230 229 221 216 213 214 210 203 198 203 207 205 203 209 212 204 192 187 186 181 172 168 164 152 140 139 144 152 186 295 298 294 292 292 296 295 280